METOP-C

Last updated on Wed Oct 22 2025 00:02:22 GMT+0000 (Coordinated Universal Time)

1 43689U 18087A 25294.59369838 .00000261 00000+0 13927-3 0 9990 2 43689 98.7005 353.1424 0002050 121.1617 238.9762 14.21483161360938
UTC large
Height (km)
Speed (km/s)
/
Latitude / Longitude
Inclination (degrees)
Orbital Period (minutes)
Azimuth
Elevation
Range (km)
Doppler Factor

Next 0 passes for location: London (51.5072 / 0.1276)

Sorry there are no passes over London.